User: anonymous   Login
Location: Fort Wayne
(41.1310°N, 85.1290°W)
Time: 02:34:47
(UTC-05:00)
Language:

Meteor 2-10 Rocket - Orbit

View from above orbital plane
View from above orbital plane
View from above satellite
View from above satellite

Ground track
Ground track

The orbit data is extracted from the following two-line orbital elements,

1 14453U 83109B   14329.10302086  .00000176  00000-0  66890-4 0  2885
2 14453 081.1659 326.9195 0104101 248.2947 175.2808 14.24539721614399
Epoch (UTC): 25 November 2014 02:28:21
Eccentricity: 0.0104101
inclination: 81.1659°
perigee height: 735 km
apogee height: 885 km
right ascension of ascending node: 326.9195°
argument of perigee: 248.2947°
revolutions per day: 14.24539721
mean anomaly at epoch: 175.2808°
orbit number at epoch: 61439

The dashed part of the orbit path shows where the satellite is in the earth's shadow,  

DLR